{"data":{"norad_id":60481,"epoch":"2026-09-19T11:53:09.023712Z","epoch_age_seconds":108689,"freshness":"FRESH","line1":"1 60481U 24149P   26262.49524333  .00027677  00000+0  60139-3 0  9990","line2":"2 60481  97.3699 346.5982 0001585 266.9870  93.1197 15.44315928116783","mean_motion":15.44315928,"eccentricity":0.0001585,"inclination_deg":97.3699,"raan_deg":346.5982,"arg_perigee_deg":266.987,"mean_anomaly_deg":93.1197,"bstar":0.00060139,"rev_number":11678,"period_min":93.245169197012,"perigee_km":432.3091974077,"apogee_km":434.46845109399,"semimajor_km":6811.5258242508,"source":"CELESTRAK","updated_at":"2026-09-20T09:00:34.711651Z"}}